File timestamp: Sat Aug  6 00:00:00 2016, Internal temp: 43.792724609375
1470441601.002, 0.0224629081785679, 0.0556310676038265, -0.0211092606186867, 34110, 33134, 23172, 136.034530639648
1470441602.002, 0.0139819690957665, 0.0543702691793442, -0.019294761121273, 33750, 33283, 23220, NaN
1470441603.002, -0.00737292785197496, 0.0528413988649845, -0.0198000967502594, 34037, 33170, 23198, NaN
1470441604.002, -0.0204987172037363, 0.0500105693936348, -0.0195060260593891, 33896, 33131, 23119, NaN
1470441604.002, -0.0219885092228651, 0.0468079634010792, -0.0181935243308544, 33761, 33134, 23170, NaN
1470441605.004, -0.00714256567880511, 0.0456169620156288, -0.0183968394994736, 34098, 33025, 23184, NaN
1470441606.004, 0.00748270796611905, 0.046179611235857, -0.0177677404135466, 33795, 33135, 23168, NaN
1470441607.004, 0.00379313016310334, 0.048452116549015, -0.017654599621892, 34035, 33133, 23247, NaN
1470441608.004, -0.0014766767853871, 0.0503085777163506, -0.0188925433903933, 33949, 33103, 23080, NaN
1470441608.004, -0.000855435035191476, 0.0532685965299606, -0.0175084415823221, 33753, 33244, 23176, NaN
1470441609.008, -0.00990563444793224, 0.0562364384531975, -0.0186788588762283, 34031, 33145, 23199, NaN
1470441610.008, -0.0325854606926441, 0.0563823767006397, -0.0190061293542385, 33719, 33294, 23133, NaN
1470441611.008, -0.0411112643778324, 0.0573737770318985, -0.0200245939195156, 34048, 33176, 23204, NaN
1470441612.008, -0.0258514638990164, 0.0572314187884331, -0.0193597171455622, 34065, 33197, 23152, NaN
1470441612.008, -0.027115797623992, 0.057019654661417, -0.0186777450144291, 33788, 33322, 23271, NaN
1470441613.012, -0.0485293082892895, 0.0566803589463234, -0.0191445089876652, 34052, 33194, 23219, NaN
1470441614.012, -0.0585369467735291, 0.0572143755853176, -0.0190465189516544, 33823, 33239, 23053, NaN
1470441615.012, -0.0508472621440887, 0.0588280633091927, -0.0179102569818497, 33808, 33250, 23231, NaN
1470441616.012, -0.0362896844744682, 0.0605837367475033, -0.0184259582310915, 34092, 33213, 23210, NaN
1470441617.012, -0.0183735135942698, 0.0621228776872158, -0.0185355022549629, 33952, 33323, 23231, NaN
1470441618.012, -0.0278888586908579, 0.0619668960571289, -0.0187662653625011, 33873, 33311, 23195, NaN
1470441619.012, -0.0349099859595299, 0.0611518658697605, -0.0180569682270288, 33994, 33216, 23221, NaN
1470441620.012, -0.0283872038125992, 0.0613997764885426, -0.017282996326685, 33776, 33269, 23154, NaN
1470441621.012, -0.0351966992020607, 0.0612476021051407, -0.0165496692061424, 33944, 33297, 23250, NaN
1470441622.012, -0.0600565783679485, 0.059289563447237, -0.0175682567059994, 34175, 33169, 23218, NaN
1470441623.012, -0.0576877184212208, 0.0574159622192383, -0.0172632150352001, 33814, 33233, 23117, NaN
1470441624.012, -0.0267238859087229, 0.0567640550434589, -0.0165040362626314, 33829, 33261, 23238, NaN
1470441625.012, -0.00443656090646982, 0.0565791204571724, -0.0155480820685625, 33981, 33154, 23158, NaN
1470441626.012, -0.00589921604841948, 0.0549832545220852, -0.0153381815180182, 33786, 33217, 23228, NaN
1470441627.012, -0.0119603825733066, 0.0537745468318462, -0.0154615081846714, 34001, 33139, 23250, NaN
1470441628.012, -0.00548955332487822, 0.0535082556307316, -0.0151949860155582, 34130, 33105, 23160, NaN
1470441629.012, 0.0110272290185094, 0.0546793453395367, -0.015654569491744, 33761, 33271, 23194, NaN
1470441630.012, 0.0231939572840929, 0.05488421022892, -0.0157618466764688, 33955, 33204, 23200, NaN
1470441630.012, 0.024896863847971, 0.0549450516700745, -0.0157159641385078, 33970, 33117, 23122, NaN
1470441631.018, 0.0220870729535818, 0.0557352788746357, -0.0154915070161223, 33689, 33272, 23218, NaN
1470441632.018, 0.0222844611853361, 0.056453138589859, -0.0161782298237085, 34021, 33201, 23233, NaN
1470441633.018, 0.0259761270135641, 0.0576027631759644, -0.0164357833564281, 34083, 33196, 23147, NaN
1470441634.018, 0.0158936288207769, 0.0573627129197121, -0.0164388995617628, 33833, 33270, 23195, NaN
1470441634.018, 0.00953142717480659, 0.0576149895787239, -0.0167808905243874, 34040, 33202, 23212, NaN
1470441635.026, 0.00418742280453444, 0.0584178529679775, -0.016207579523325, 33882, 33250, 23128, NaN
1470441636.026, -0.00722474558278918, 0.0582562386989594, -0.0153786921873689, 33732, 33293, 23290, NaN
1470441637.026, -0.0265296101570129, 0.0573995560407639, -0.0141629250720143, 34073, 33193, 23223, NaN
1470441638.026, -0.0238764435052872, 0.0570922344923019, -0.0132650760933757, 34032, 33244, 23106, NaN
1470441638.026, -0.00673625757917762, 0.0571567453444004, -0.0122617445886135, 33817, 33264, 23240, NaN
1470441639.034, -0.0223544463515282, 0.056192047894001, -0.0121441930532455, 33992, 33173, 23204, NaN
1470441640.034, -0.0358597449958324, 0.0550540015101433, -0.0127434711903334, 33918, 33200, 23100, NaN
1470441641.034, -0.0207383222877979, 0.0554239116609097, -0.012503276579082, 33767, 33199, 23252, NaN
1470441642.034, -0.00939087755978107, 0.0552903935313225, -0.0121618146076798, 34056, 33170, 23273, NaN
1470441643.024, -0.00978000275790691, 0.0557043254375458, -0.0119089623913169, 34067, 33153, 23199, NaN
1470441644.024, 0.00858123786747456, 0.0567396767437458, -0.0109378751367331, 33783, 33218, 23187, NaN
1470441645.024, 0.0243873707950115, 0.05787368491292, -0.0119772776961327, 33867, 33297, 23224, NaN
1470441646.024, 0.015555371530354, 0.057351540774107, -0.0113247083500028, 33995, 33139, 23165, NaN
1470441647.024, 0.0151304854080081, 0.0561161302030087, -0.0112153999507427, 33793, 33239, 23183, NaN
1470441648.024, 0.00635112496092916, 0.0539352521300316, -0.0115100182592869, 34011, 33220, 23220, NaN
1470441649.024, 0.00199104659259319, 0.0516409575939178, -0.0112106502056122, 34098, 33086, 23177, NaN
1470441650.024, 0.00871779769659042, 0.051647275686264, -0.0111926635727286, 33789, 33151, 23213, NaN
1470441651.024, 0.0192314404994249, 0.0522157438099384, -0.0107836499810219, 33989, 33174, 23210, NaN
1470441652.024, 0.0218727011233568, 0.0532468408346176, -0.0106035023927689, 33987, 33109, 23118, NaN
1470441653.024, 0.0201497171074152, 0.0526557080447674, -0.011896776035428, 33736, 33212, 23215, NaN
1470441654.024, 0.0312204603105783, 0.0531061142683029, -0.0113800596445799, 34066, 33099, 23264, NaN
1470441655.024, 0.0515896566212177, 0.0547350756824017, -0.010603996925056, 33923, 33201, 23202, 136.33332824707
1470441656.024, 0.0443757772445679, 0.0570598393678665, -0.0103408414870501, 33880, 33281, 23297, NaN
1470441657.024, 0.0143495639786124, 0.0575095377862453, -0.0114401252940297, 34150, 33115, 23124, NaN
1470441658.024, 0.0050925831310451, 0.0582618303596973, -0.0111540062353015, 33759, 33284, 23181, NaN
1470441659.024, 0.00861426163464785, 0.0561639964580536, -0.0110878348350525, 33980, 33146, 23233, NaN
1470441660.024, 0.00939544476568699, 0.0543281957507133, -0.0120697105303407, 33911, 33194, 23132, NaN
1470441661.024, 0.00105287740007043, 0.0535357743501663, -0.012518897652626, 33747, 33279, 23222, NaN
1470441662.024, -0.00228242506273091, 0.0519546754658222, -0.0128004504367709, 34121, 33049, 23192, NaN
1470441662.024, 0.00669894646853209, 0.0520940162241459, -0.0125959543511271, 33849, 33128, 23180, NaN
1470441663.026, 0.0214495807886124, 0.0525874979794025, -0.0124779380857944, 33900, 33262, 23253, NaN
1470441664.026, 0.0207991637289524, 0.0535101778805256, -0.0129673676565289, 34083, 33089, 23168, NaN
1470441665.026, 0.0202974323183298, 0.0547171458601952, -0.0130550051108003, 33656, 33297, 23167, NaN
1470441666.026, 0.0231683608144522, 0.0557883009314537, -0.0125887198373675, 33955, 33204, 23203, NaN
1470441666.026, 0.0151424016803503, 0.0573115982115269, -0.0129076158627868, 34099, 33182, 23184, NaN
1470441667.03, 0.00241412594914436, 0.0591051653027534, -0.012938735075295, 33831, 33299, 23242, NaN
1470441668.03, -0.0129939680919051, 0.059635441750288, -0.0131566068157554, 34079, 33230, 23293, NaN
1470441669.03, -0.0325454026460648, 0.0599681697785854, -0.0140063809230924, 33922, 33175, 23087, NaN
1470441670.03, -0.0336176529526711, 0.0594402216374874, -0.0145008396357298, 33709, 33269, 23235, NaN
1470441670.03, -0.0367766544222832, 0.059241522103548, -0.0141221918165684, 33991, 33217, 23269, NaN
1470441671.034, -0.0515712164342403, 0.0571296438574791, -0.0150843821465969, 34071, 33131, 23146, NaN
1470441672.034, -0.0335812382400036, 0.0547663494944572, -0.0140128107741475, 33829, 33247, 23206, NaN
1470441673.034, -0.0135486479848623, 0.0530830062925816, -0.0144856991246343, 34074, 33117, 23263, NaN
1470441674.034, -0.0114107262343168, 0.0519115813076496, -0.0141109386458993, 33958, 33148, 23191, NaN
1470441675.034, -0.0169694628566504, 0.0519588999450207, -0.0143788373097777, 33753, 33232, 23231, NaN
1470441676.034, -0.0288969948887825, 0.0523767247796059, -0.0146530317142606, 34041, 33144, 23207, NaN
1470441677.034, -0.0150540238246322, 0.0526149682700634, -0.0141438050195575, 33823, 33143, 23153, NaN
1470441678.034, 0.0126390065997839, 0.0535487495362759, -0.014396951533854, 33947, 33168, 23268, NaN
1470441679.034, 0.0199045762419701, 0.0537360422313213, -0.0145246190950274, 34116, 33080, 23214, NaN
1470441680.034, 0.0088956831023097, 0.0536664947867393, -0.0148027557879686, 33750, 33223, 23203, NaN
1470441681.034, -0.00435906182974577, 0.0546656474471092, -0.0136479679495096, 33968, 33139, 23205, NaN
1470441682.034, -0.0144014498218894, 0.0555342994630337, -0.013684518635273, 33920, 33154, 23109, NaN
1470441683.034, -0.00967758614569902, 0.0552224032580853, -0.0134286768734455, 33738, 33194, 23167, NaN
1470441684.034, 0.0171006061136723, 0.0551413223147392, -0.0138798793777823, 34092, 33107, 23242, NaN
1470441685.034, 0.026022894307971, 0.0567839071154594, -0.0132415238767862, 33879, 33135, 23200, NaN
1470441686.034, 0.0107308812439442, 0.0592293627560139, -0.0153324659913778, 33943, 33250, 23232, NaN
1470441687.034, 0.00828915555030107, 0.0613173805177212, -0.0163462981581688, 34134, 33163, 23268, NaN
1470441688.034, 0.00925324857234955, 0.0657719373703003, -0.0172937214374542, 33837, 33284, 23158, NaN
1470441688.034, 0.0134482393041253, 0.0691075772047043, -0.0167724061757326, 33789, 33314, 23194, NaN
1470441689.04, 0.0153730371966958, 0.0715895593166351, -0.0173065215349197, 33989, 33264, 23262, NaN
1470441690.04, -0.00608091708272696, 0.0710607767105103, -0.0169719532132149, 34108, 33277, 23137, NaN
1470441691.04, -0.0273841805756092, 0.0693582743406296, -0.0168806910514832, 33875, 33276, 23213, NaN
1470441692.04, -0.0335659086704254, 0.0665581747889519, -0.016009870916605, 33989, 33276, 23227, NaN
1470441692.04, -0.0468945950269699, 0.0628874599933624, -0.0156500544399023, 33963, 33103, 23148, NaN
1470441693.048, -0.059629712253809, 0.0589271299540997, -0.0147159118205309, 33669, 33159, 23148, NaN
1470441694.048, -0.0461779944598675, 0.0565402805805206, -0.0146297533065081, 33992, 33128, 23194, NaN
1470441695.048, -0.0164287090301514, 0.056384339928627, -0.0149640841409564, 34114, 33073, 23145, NaN
1470441696.048, 0.0143237598240376, 0.0582547411322594, -0.0160365831106901, 33838, 33185, 23260, NaN
1470441696.048, 0.0284466501325369, 0.0599827915430069, -0.0158360060304403, 34045, 33218, 23249, NaN
1470441697.056, 0.0363454893231392, 0.0619495660066605, -0.0159038808196783, 33929, 33215, 23103, NaN
1470441698.056, 0.0394238494336605, 0.0653581172227859, -0.0156996473670006, 33742, 33294, 23250, NaN
1470441699.056, 0.018830256536603, 0.0678829699754715, -0.0166318714618683, 34120, 33223, 23272, NaN
1470441700.056, 0.00704741710796952, 0.0712441131472588, -0.0170913636684418, 34090, 33268, 23153, NaN
1470441701.046, 0.0129599394276738, 0.0720878317952156, -0.0167502742260695, 33856, 33385, 23176, NaN
1470441702.046, 0.00196355697698891, 0.0711096525192261, -0.0165832098573446, 33930, 33252, 23214, NaN
1470441703.046, -0.0106563754379749, 0.0702544152736664, -0.0158736109733582, 33962, 33177, 23202, NaN
1470441704.046, -0.0170422568917274, 0.0684293657541275, -0.0156126795336604, 33880, 33308, 23187, NaN
1470441705.046, -0.0318767614662647, 0.0660672187805176, -0.0163316167891026, 34001, 33260, 23241, NaN
1470441706.046, -0.0301110614091158, 0.0645545125007629, -0.0170971360057592, 34116, 33136, 23120, NaN
1470441707.046, -0.000830605742521584, 0.0642580837011337, -0.0165594816207886, 33781, 33169, 23164, NaN
1470441708.046, 0.0198776070028543, 0.0645320564508438, -0.0166748147457838, 33799, 33250, 23208, NaN
1470441709.046, 0.0238625817000866, 0.0652203857898712, -0.0177291110157967, 34134, 33120, 23229, 136.445709228516
1470441710.046, 0.0232031047344208, 0.0653915926814079, -0.0184964891523123, 33893, 33163, 23214, NaN
1470441711.046, 0.0145724778994918, 0.0646540150046349, -0.0179168116301298, 33953, 33194, 23228, NaN
1470441712.046, 0.00231453543528914, 0.0637110993266106, -0.0192727707326412, 34050, 33109, 23117, NaN
1470441713.046, 0.00342930317856371, 0.0635512843728065, -0.019638791680336, 33684, 33254, 23172, NaN
1470441714.046, 0.00530321663245559, 0.0615915320813656, -0.0187101308256388, 33992, 33130, 23219, NaN
1470441715.046, 0.00231294380500913, 0.0582225024700165, -0.0183718781918287, 33948, 33063, 23136, NaN
1470441716.046, 0.0180274154990911, 0.0571048930287361, -0.0171805135905743, 33886, 33198, 23211, NaN
1470441717.046, 0.0215182621032, 0.0570298694074154, -0.0166703630238771, 34148, 33071, 23268, NaN
1470441718.046, -0.00740866689011455, 0.0567150115966797, -0.0171935670077801, 33772, 33115, 23150, NaN
1470441719.046, -0.00606831954792142, 0.0587463714182377, -0.0171819962561131, 33900, 33124, 23106, NaN
1470441720.046, 0.0359280630946159, 0.0634543597698212, -0.0174160581082106, 33993, 33138, 23145, NaN
1470441720.046, 0.052783016115427, 0.0661163330078125, -0.0174672976136208, 33757, 33312, 23304, NaN
1470441721.048, 0.0276054032146931, 0.067243255674839, -0.0182783808559179, 34152, 33143, 23201, NaN
1470441722.048, 0.0121774645522237, 0.0677399039268494, -0.0196443628519773, 33839, 33254, 23173, NaN
1470441723.048, 0.00992973987013102, 0.0680649057030678, -0.0207699593156576, 33908, 33248, 23254, NaN
1470441724.048, -0.0182977747172117, 0.0666313543915749, -0.0203148405998945, 34028, 33188, 23173, NaN
1470441724.048, -0.0410500019788742, 0.0645902752876282, -0.020342942327261, 33696, 33207, 23154, NaN
1470441725.052, -0.0302898064255714, 0.0630980730056763, -0.0210654977709055, 34137, 33191, 23259, NaN
1470441726.052, -0.0293808914721012, 0.0615660324692726, -0.0206631496548653, 34023, 33175, 23176, NaN
1470441727.052, -0.0310095697641373, 0.0604271627962589, -0.0208452269434929, 33782, 33243, 23153, NaN
1470441728.052, -0.00604417594149709, 0.0600164830684662, -0.0200925171375275, 34020, 33142, 23193, NaN
1470441728.052, 0.0122161405161023, 0.0605743899941444, -0.0197706036269665, 33808, 33204, 23114, NaN
1470441729.056, 0.0121768219396472, 0.0609233006834984, -0.0199653655290604, 33851, 33222, 23197, NaN
1470441730.056, -0.000310285569867119, 0.063585489988327, -0.0208766050636768, 34167, 33136, 23219, NaN
1470441731.056, 0.00284323771484196, 0.063889391720295, -0.0202966071665287, 33855, 33300, 23100, NaN
1470441732.056, 0.023098511621356, 0.0644919648766518, -0.0195514820516109, 33852, 33284, 23230, NaN
1470441733.056, 0.0174537040293217, 0.0657593980431557, -0.019903402775526, 33972, 33221, 23242, NaN
1470441734.056, -0.0117593444883823, 0.0645395889878273, -0.0207990519702435, 33838, 33272, 23187, NaN
1470441735.056, -0.0180699974298477, 0.0629331469535828, -0.0211426056921482, 34072, 33331, 23169, NaN
1470441736.056, -0.00295069022104144, 0.0625858828425407, -0.0213936846703291, 34097, 33188, 23187, NaN
1470441737.056, -0.00271112890914083, 0.0610210970044136, -0.0211604740470648, 33844, 33222, 23173, NaN
1470441738.056, -0.00405190698802471, 0.059958890080452, -0.0213075205683708, 33758, 33229, 23181, NaN
1470441739.056, -0.00426144199445844, 0.0597943365573883, -0.0207128059118986, 34030, 33134, 23233, NaN
1470441740.056, -0.016198456287384, 0.0598241984844208, -0.0203682295978069, 33923, 33201, 23157, NaN
1470441741.056, -0.0158396139740944, 0.0592365972697735, -0.0210151933133602, 33903, 33258, 23230, NaN
1470441742.056, 0.00143566785845906, 0.0581616014242172, -0.020238921046257, 34099, 33127, 23176, NaN
1470441743.056, 0.00712256319820881, 0.0566569902002811, -0.0199256297200918, 33672, 33272, 23178, NaN
1470441744.056, 0.0211029574275017, 0.0573809966444969, -0.0205664783716202, 33968, 33161, 23239, NaN
1470441745.056, 0.021383922547102, 0.0571834184229374, -0.0199531316757202, 34008, 33191, 23155, NaN
1470441746.056, -0.00919335335493088, 0.0563565716147423, -0.0203269384801388, 33842, 33205, 23188, NaN
1470441746.056, -0.0239287596195936, 0.0552250631153584, -0.0209293980151415, 34152, 33071, 23129, NaN
1470441747.062, 0.00053312728414312, 0.0551812425255775, -0.0208995398133993, 33713, 33251, 23208, NaN
1470441748.062, 0.0184478610754013, 0.0565838739275932, -0.0200201738625765, 33856, 33210, 23186, NaN
1470441749.062, 0.00632223905995488, 0.0580012574791908, -0.0204636231064796, 34073, 33166, 23133, NaN
1470441750.062, 0.00706400955095887, 0.0599100142717361, -0.0209667216986418, 33833, 33261, 23145, NaN
1470441750.062, 0.0315440706908703, 0.0616944879293442, -0.0220863297581673, 34108, 33270, 23218, NaN
1470441751.07, 0.0322342962026596, 0.0604670122265816, -0.0217394027858973, 33962, 33276, 23177, NaN
1470441752.07, 0.0111692035570741, 0.0605431869626045, -0.0211634766310453, 33721, 33274, 23199, NaN
1470441753.07, -0.00815881788730621, 0.0604427047073841, -0.0209793075919151, 33992, 33207, 23255, NaN
1470441754.07, -0.0287196692079306, 0.060141496360302, -0.0210278127342463, 34106, 33156, 23146, NaN
1470441754.07, -0.0429820865392685, 0.0604617111384869, -0.0213519986718893, 33866, 33245, 23193, NaN
1470441755.078, -0.0474446527659893, 0.0609672479331493, -0.0223273988813162, 34001, 33242, 23181, NaN
1470441756.078, -0.0331855677068233, 0.0611391738057137, -0.0222359914332628, 33944, 33167, 23127, NaN
1470441757.078, -0.00494120316579938, 0.0617234148085117, -0.0224827416241169, 33725, 33252, 23167, NaN
1470441758.078, 0.00372045557014644, 0.0613890625536442, -0.0224426761269569, 34025, 33255, 23204, NaN
1470441759.068, -0.0116189252585173, 0.0600003078579903, -0.0228612069040537, 34119, 33179, 23187, NaN
1470441760.068, -0.0221934802830219, 0.0570048205554485, -0.0213971212506294, 33747, 33193, 23134, NaN
1470441761.068, -0.00908099021762609, 0.0541908293962479, -0.0202884040772915, 33862, 33165, 23200, NaN
1470441762.068, 0.00884073134511709, 0.0514420047402382, -0.0192364957183599, 34019, 33073, 23130, NaN
1470441763.068, 0.00209762761369348, 0.0497803576290607, -0.0192603524774313, 33734, 33155, 23218, 135.909576416016
1470441764.068, -0.00977067649364471, 0.0491085648536682, -0.019924046471715, 34178, 32996, 23137, NaN
1470441765.068, 4.52934873464983e-05, 0.0490001440048218, -0.020470879971981, 33801, 33176, 23121, NaN
1470441766.068, 0.0177551284432411, 0.0495447479188442, -0.0206465721130371, 33959, 33068, 23183, NaN
1470441767.068, 0.0428604669868946, 0.051861297339201, -0.0207087378948927, 33956, 33116, 23093, NaN
1470441768.068, 0.0448600389063358, 0.0531344264745712, -0.0206985771656036, 33750, 33180, 23175, NaN
1470441769.068, 0.0211877636611462, 0.0525711923837662, -0.0213883221149445, 34079, 33083, 23141, NaN
1470441770.068, 0.000645651889499277, 0.0522323623299599, -0.0222085919231176, 33702, 33225, 23133, NaN
1470441771.068, -0.000700560165569186, 0.0522825308144093, -0.0237515792250633, 34048, 33149, 23220, NaN
1470441772.068, 0.000639942591078579, 0.052588690072298, -0.0247061010450125, 34083, 33112, 23077, NaN
1470441773.068, 0.0147126475349069, 0.0547137148678303, -0.0246291533112526, 33775, 33276, 23198, NaN
1470441774.068, 0.032419104129076, 0.0572638995945454, -0.0254685766994953, 34106, 33184, 23268, NaN
1470441775.068, 0.0362899824976921, 0.0605027973651886, -0.0255271308124065, 33921, 33244, 23117, NaN
1470441776.068, 0.0281197372823954, 0.0621980130672455, -0.0247568711638451, 33716, 33300, 23191, NaN
1470441777.068, 0.0177686121314764, 0.0653881654143333, -0.0250694323331118, 34034, 33256, 23164, NaN
1470441778.068, 0.00999162159860134, 0.06622464209795, -0.0253604706376791, 34087, 33317, 23107, NaN
1470441778.068, -0.00779119413346052, 0.0654452741146088, -0.0258928555995226, 33834, 33296, 23237, NaN
1470441779.07, -0.0268953628838062, 0.0631369948387146, -0.0255417115986347, 34013, 33237, 23221, NaN
1470441780.07, -0.0415902063250542, 0.061651423573494, -0.0249746832996607, 33827, 33249, 23137, NaN
1470441781.07, -0.0664755403995514, 0.0582999438047409, -0.0242415070533752, 33805, 33253, 23231, NaN
1470441782.07, -0.0871843099594116, 0.0564335025846958, -0.024691991508007, 34121, 33160, 23151, NaN
1470441782.07, -0.0605477578938007, 0.0548585057258606, -0.0242217760533094, 33921, 33184, 23049, NaN
1470441783.074, -0.0139620015397668, 0.0538529828190804, -0.0226760730147362, 33723, 33271, 23175, NaN
1470441784.054, 0.0077995196916163, 0.054065752774477, -0.0220934953540564, 33952, 33205, 23178, NaN
1470441785.054, 0.013007783330977, 0.0548035949468613, -0.0212246049195528, 34026, 33258, 23147, NaN
1470441786.054, 0.0114948488771915, 0.054764848202467, -0.0205709356814623, 33869, 33283, 23208, NaN
1470441787.054, -0.0026794548612088, 0.0549367032945156, -0.0206546634435654, 34053, 33188, 23178, NaN
1470441788.054, -0.0151210194453597, 0.0559256337583065, -0.0215604975819588, 33903, 33179, 23083, NaN
1470441789.054, -0.00867042317986488, 0.0559634454548359, -0.0210324823856354, 33712, 33302, 23208, NaN
1470441790.054, 0.0037374107632786, 0.0561530143022537, -0.0209173038601875, 34006, 33190, 23200, NaN
1470441791.054, 0.0107864933088422, 0.0554975308477879, -0.0210121106356382, 34021, 33243, 23114, NaN
1470441792.054, 0.0043610967695713, 0.0545666590332985, -0.0214220006018877, 33792, 33259, 23177, NaN
1470441793.054, -0.00443372176960111, 0.0526845715939999, -0.0217720177024603, 34017, 33158, 23219, NaN
1470441794.054, 0.00135526363737881, 0.0513950772583485, -0.0215739607810974, 33970, 33132, 23066, NaN
1470441795.054, 0.0131440963596106, 0.0507576167583466, -0.0209637600928545, 33690, 33234, 23166, NaN
1470441796.054, 0.0244020614773035, 0.0504707954823971, -0.0213603693991899, 33996, 33139, 23188, NaN
1470441797.054, 0.0348999984562397, 0.0517024882137775, -0.0207087341696024, 33892, 33173, 23088, NaN
1470441798.054, 0.0469231903553009, 0.0530977509915829, -0.0208167172968388, 33875, 33241, 23166, NaN
1470441799.054, 0.0485194735229015, 0.054095197468996, -0.0203115995973349, 34132, 33176, 23201, NaN
1470441800.054, 0.0271859504282475, 0.0546039901673794, -0.0204922258853912, 33775, 33240, 23184, NaN
1470441801.054, 0.00674734730273485, 0.0546784587204456, -0.0206639245152473, 33946, 33268, 23169, NaN
1470441802.054, -0.00396537967026234, 0.0545498318970203, -0.01957075484097, 33933, 33184, 23076, NaN
1470441803.054, -0.00902476627379656, 0.0536591857671738, -0.0194030161947012, 33741, 33232, 23126, NaN
1470441804.054, -0.00218658032827079, 0.0529387816786766, -0.0195527877658606, 34097, 33134, 23242, NaN
1470441805.054, -0.00695738801732659, 0.0512512512505054, -0.0197538491338491, 33889, 33204, 23164, NaN
1470441805.054, -0.0241501685231924, 0.0489975102245808, -0.0199368000030518, 33890, 33193, 23200, NaN
1470441806.06, -0.028364721685648, 0.0493064001202583, -0.0209284424781799, 34041, 33125, 23135, NaN
1470441807.06, -0.0118805048987269, 0.0523998625576496, -0.0211643893271685, 33688, 33280, 23137, NaN
1470441808.06, 0.00764486705884337, 0.055442500859499, -0.0219239499419928, 33894, 33265, 23139, NaN
1470441809.06, 0.0272413827478886, 0.0570926256477833, -0.0227673668414354, 34120, 33214, 23180, NaN
1470441809.06, 0.0381411202251911, 0.0583831593394279, -0.0227280296385288, 33927, 33312, 23153, NaN
1470441810.068, 0.0320535711944103, 0.0597552061080933, -0.0228386241942644, 33886, 33364, 23211, NaN
1470441811.068, 0.0132794743403792, 0.0602733418345451, -0.0233830232173204, 34066, 33249, 23224, NaN